Welcome to the New NWS' Forecast!
Most changes are behind the scenes, but click here for differences you might notice.

Regional Weather Roundup (RWR)

Issued by National Weather Service (NWS)

                            
590 
ASUS45 KABQ 201301
RWRNM 
NEW MEXICO REGIONAL WEATHER ROUNDUP
NATIONAL WEATHER SERVICE ALBUQUERQUE NM
700 AM MDT MON AUG 20 2018

NOTE: "FAIR" MEANS FEW OR NO CLOUDS BELOW 12,000 FEET AGL WITH NO
       SIGNIFICANT WEATHER OR OBSTRUCTIONS TO VISION.

      THIS PRODUCT IS RELEASED AS TWO VERSIONS.  ONE VERSION NEAR
      THE TOP OF THE HOUR CONTAINING PRELIMINARY DATA FROM ALBUQUERQUE
      AND OTHER STATIONS.  A FINAL VERSION WITH ADDITIONAL DATA IS 
      ISSUED ABOUT 10 MINUTES AFTER THE HOUR.
 
NMZ501-503-504-510>518-201400-
NORTHWEST PLATEAU/NORTHCENTRAL MOUNTAINS
  
CITY           SKY/WX    TMP DP  RH WIND       PRES   REMARKS
FARMINGTON     FAIR      55  32  41 E9        30.21R                  
LOS ALAMOS     CLOUDY    59  50  71 S13       30.38R                  
SANTA FE       FAIR      59  54  83 S9        30.34R                  
TAOS           CLOUDY    54  46  74 N5        30.39R                  

$$
NMZ402-403-502-505>509-201400-
WESTCENTRAL MOUNTAINS/SOUTHWEST MOUNTAINS
  
CITY           SKY/WX    TMP DP  RH WIND       PRES   REMARKS
GALLUP         FAIR      44  31  60 E5        30.31R                  
GRANTS         FAIR      49  39  69 N5        30.33R                  
SILVER CITY    FAIR      60  32  35 NW8       30.17R                  

$$
NMZ407-409-411-412-201400-
SOUTHERN DESERTS
  
CITY           SKY/WX    TMP DP  RH WIND       PRES   REMARKS
DEMING         FAIR      66  49  54 SE3       30.10                   
LAS CRUCES     FAIR      73  55  52 SE6       30.14R                  
HOLLOMAN AFB   FAIR      69  51  53 CALM        N/A                   
ALAMOGORDO     FAIR      75  54  46 N9        30.12S                  
T OR C         FAIR      72  56  57 N13G23    30.17R                  

$$
NMZ519>523-201400-
CENTRAL VALLEYS/CENTRAL HIGHLANDS
  
CITY           SKY/WX    TMP DP  RH WIND       PRES   REMARKS
ALBUQUERQUE    FAIR      66  52  60 E17       30.26R                  
DOUBLE EAGLE   CLEAR     63  54  72 SE9       30.30R                  
MORIARTY ARPT  CLOUDY    61  54  76 S3        30.37R                  
CLINES CORNERS MOCLDY    55  49  80 SE9       30.40R                  
BELEN          FAIR      64  53  65 N5        30.25R                  
SOCORRO        FAIR      65  57  74 CALM      30.23R                  

$$
NMZ524>526-539-540-201400-
SOUTHCENTRAL MOUNTAINS
  
CITY           SKY/WX    TMP DP  RH WIND       PRES   REMARKS
RUIDOSO          N/A     57  54  88 SE7       30.41R                  

$$
NMZ527>531-201400-
NORTHEAST HIGHLANDS/NORTHEAST PLAINS
  
CITY           SKY/WX    TMP DP  RH WIND       PRES   REMARKS
LAS VEGAS      MOCLDY    55  53  93 SW6       30.38R                  
RATON          FAIR      56  49  77 NE3       30.33R                  
CLAYTON        FAIR      58  50  75 N15       30.27R                  

$$
NMZ532>537-201400-
EASTCENTRAL PLAINS
  
CITY           SKY/WX    TMP DP  RH WIND       PRES   REMARKS
SANTA ROSA     PTSUNNY   62  54  74 CALM      30.29R                  
TUCUMCARI      MOCLDY    63  59  87 CALM      30.24R                  
CANNON AFB     MOCLDY    62  62 100 NE10      30.27R                  
CLOVIS AIRPORT FAIR      60  55  83 NE7       30.28R                  

$$
NMZ028-029-538-201400-
SOUTHEAST PLAINS
  
CITY           SKY/WX    TMP DP  RH WIND       PRES   REMARKS
ROSWELL        FAIR      68  59  73 N8        30.21R                  
ARTESIA        FAIR      66  66 100 N13       30.21R                  
CARLSBAD       MOCLDY    67  61  81 MISG      30.18R THUNDER          
HOBBS          TSTM      66  63  88 CALM      30.20R                  


$$